Tracking 17694 objects as of 26-May-2016
HD Live streaming from Space Station
objects crossing your sky now

EDUSAT

Track EDUSAT now!
10-day predictions
EDUSAT is classified as:


NORAD ID: 37788
Int'l Code: 2011-044A
Perigee: 642.0 km
Apogee: 694.5 km
Inclination: 98.2 °
Period: 98.0 minutes
Semi major axis: 7039 km
RCS: 0.1421 m2 (medium)
Launch date: August 17, 2011
Source: Italy (IT)
Launch site: Orenburg, Russia (OREN)

EduSat is a microsatellite built by the University of Rome.
Your satellite tracking list
Your tracking list is empty





NASA's NSSDC Master Catalog

Two Line Element Set (TLE):
1 37788U 11044A   16146.87665419  .00000226  00000-0  45585-4 0  9998
2 37788  98.2181 255.9970 0037299 233.4276 240.2086 14.70521181255967
Source of the keplerian elements: AFSPC

N2YO: 598